When you browse on this site, cookies collect data to enhance your experience and personalize the content and advertising you see.
Visit our Privacy Policy to learn more. By continuing to use the site, you agree to this use of cookies and data.
  • In Czech Republic
  • List of Countries
  • For 7 days
  • Water Temperature
  • Weather Map
  • Weather Widgets
  • user-avatar
    Login

    Hourly Weather La Rioja

    Today, 15 September, Sunday

    Time Temperature Precipitation Wind Pressure Humidity
    00:00 +20°C° 0 mm 1 mps 707 mmHg 40%
    01:00 +20°C° 0 mm 1 mps 707 mmHg 42%
    02:00 +19°C° 0 mm 1 mps 707 mmHg 43%
    03:00 +19°C° 0 mm 1 mps 706 mmHg 47%
    04:00 +18°C° 0 mm 1 mps 706 mmHg 51%
    05:00 +16°C° 0 mm 1 mps 706 mmHg 56%
    06:00 +18°C° 0 mm 2 mps 707 mmHg 49%
    07:00 +20°C° 0 mm 2 mps 707 mmHg 42%
    08:00 +23°C° 0 mm 2 mps 708 mmHg 35%
    09:00 +25°C° 0 mm 2 mps 708 mmHg 32%
    10:00 +27°C° 0 mm 2 mps 708 mmHg 28%
    11:00 +29°C° 0 mm 2 mps 708 mmHg 24%
    12:00 +31°C° 0 mm 2 mps 708 mmHg 22%
    13:00 +32°C° 0 mm 2 mps 708 mmHg 19%
    14:00 +34°C° 0 mm 3 mps 707 mmHg 17%
    15:00 +34°C° 0 mm 3 mps 707 mmHg 17%
    16:00 +34°C° 0 mm 3 mps 707 mmHg 17%
    17:00 +34°C° 0 mm 3 mps 707 mmHg 17%
    18:00 +31°C° 0 mm 3 mps 708 mmHg 20%
    19:00 +28°C° 0 mm 4 mps 709 mmHg 22%
    20:00 +26°C° 0 mm 4 mps 709 mmHg 25%
    21:00 +25°C° 0 mm 4 mps 710 mmHg 24%
    22:00 +24°C° 0 mm 3 mps 711 mmHg 23%
    23:00 +22°C° 0 mm 3 mps 712 mmHg 21%

    Tomorrow, 16 September, Monday

    Time Temperature Precipitation Wind Pressure Humidity
    00:00 +22°C° 0 mm 4 mps 712 mmHg 23%
    01:00 +21°C° 0 mm 4 mps 713 mmHg 24%
    02:00 +20°C° 0 mm 5 mps 714 mmHg 26%
    03:00 +17°C° 0 mm 6 mps 715 mmHg 32%
    04:00 +15°C° 0 mm 7 mps 716 mmHg 38%
    05:00 +12°C° 0 mm 7 mps 717 mmHg 44%
    06:00 +12°C° 0 mm 7 mps 718 mmHg 42%
    07:00 +12°C° 0 mm 7 mps 719 mmHg 39%
    08:00 +11°C° 0 mm 7 mps 721 mmHg 36%
    09:00 +12°C° 0 mm 7 mps 721 mmHg 34%
    10:00 +14°C° 0 mm 7 mps 722 mmHg 31%
    11:00 +14°C° 0 mm 7 mps 722 mmHg 29%
    12:00 +15°C° 0 mm 6 mps 722 mmHg 28%
    13:00 +16°C° 0 mm 5 mps 721 mmHg 26%
    14:00 +17°C° 0 mm 5 mps 721 mmHg 25%
    15:00 +18°C° 0 mm 4 mps 721 mmHg 25%
    16:00 +18°C° 0 mm 3 mps 720 mmHg 25%
    17:00 +18°C° 0 mm 2 mps 720 mmHg 25%
    18:00 +17°C° 0 mm 2 mps 720 mmHg 28%
    19:00 +16°C° 0 mm 2 mps 720 mmHg 30%
    20:00 +15°C° 0 mm 2 mps 721 mmHg 32%
    21:00 +14°C° 0 mm 2 mps 720 mmHg 34%
    22:00 +14°C° 0 mm 2 mps 720 mmHg 35%
    23:00 +13°C° 0 mm 1 mps 719 mmHg 37%

    Day after tomorrow, 17 September, Tuesday

    Time Temperature Precipitation Wind Pressure Humidity
    00:00 +13°C° 0 mm 1 mps 718 mmHg 39%
    01:00 +12°C° 0 mm 1 mps 718 mmHg 42%
    02:00 +10°C° 0 mm 0 mps 717 mmHg 44%
    03:00 +10°C° 0 mm 0 mps 716 mmHg 46%
    04:00 +9°C° 0 mm 0 mps 716 mmHg 48%
    05:00 +9°C° 0 mm 0 mps 715 mmHg 49%
    06:00 +12°C° 0 mm 1 mps 715 mmHg 45%
    07:00 +13°C° 0 mm 1 mps 715 mmHg 40%
    08:00 +15°C° 0 mm 2 mps 715 mmHg 36%
    09:00 +16°C° 0 mm 2 mps 715 mmHg 33%
    10:00 +18°C° 0 mm 2 mps 714 mmHg 30%
    11:00 +19°C° 0 mm 3 mps 714 mmHg 28%
    12:00 +20°C° 0 mm 3 mps 713 mmHg 26%
    13:00 +21°C° 0 mm 2 mps 712 mmHg 25%
    14:00 +23°C° 0 mm 2 mps 711 mmHg 24%
    15:00 +23°C° 0 mm 2 mps 711 mmHg 24%
    16:00 +24°C° 0 mm 2 mps 710 mmHg 24%
    17:00 +24°C° 0 mm 2 mps 710 mmHg 23%
    18:00 +21°C° 0 mm 2 mps 711 mmHg 27%
    19:00 +19°C° 0 mm 2 mps 711 mmHg 30%
    20:00 +18°C° 0 mm 2 mps 712 mmHg 34%
    21:00 +17°C° 0 mm 2 mps 712 mmHg 35%
    22:00 +17°C° 0 mm 2 mps 713 mmHg 36%
    23:00 +16°C° 0 mm 1 mps 714 mmHg 37%

    18 September, Wednesday

    Time Temperature Precipitation Wind Pressure Humidity
    00:00 +15°C° 0 mm 1 mps 713 mmHg 39%
    01:00 +15°C° 0 mm 1 mps 713 mmHg 41%
    02:00 +14°C° 0 mm 1 mps 713 mmHg 43%
    03:00 +14°C° 0 mm 1 mps 713 mmHg 44%
    04:00 +13°C° 0 mm 1 mps 713 mmHg 45%
    05:00 +13°C° 0 mm 1 mps 712 mmHg 46%
    06:00 +15°C° 0 mm 1 mps 713 mmHg 40%
    07:00 +18°C° 0 mm 1 mps 713 mmHg 33%
    08:00 +21°C° 0 mm 1 mps 713 mmHg 27%
    09:00 +21°C° 0 mm 2 mps 713 mmHg 25%
    10:00 +24°C° 0 mm 2 mps 712 mmHg 22%
    11:00 +26°C° 0 mm 3 mps 712 mmHg 19%
    12:00 +27°C° 0 mm 4 mps 710 mmHg 18%
    13:00 +28°C° 0 mm 4 mps 709 mmHg 16%
    14:00 +30°C° 0 mm 5 mps 708 mmHg 15%
    15:00 +30°C° 0 mm 4 mps 707 mmHg 15%
    16:00 +30°C° 0 mm 4 mps 706 mmHg 14%
    17:00 +30°C° 0 mm 3 mps 705 mmHg 14%
    18:00 +27°C° 0 mm 3 mps 705 mmHg 19%
    19:00 +25°C° 0 mm 3 mps 705 mmHg 23%
    20:00 +22°C° 0 mm 3 mps 705 mmHg 27%
    21:00 +21°C° 0 mm 2 mps 705 mmHg 30%
    22:00 +20°C° 0 mm 2 mps 704 mmHg 34%
    23:00 +20°C° 0 mm 1 mps 704 mmHg 37%

    19 September, Thursday

    Time Temperature Precipitation Wind Pressure Humidity
    00:00 +19°C° 0 mm 1 mps 704 mmHg 37%
    01:00 +19°C° 0 mm 1 mps 704 mmHg 37%
    02:00 +17°C° 0 mm 2 mps 703 mmHg 36%
    03:00 +17°C° 0 mm 2 mps 703 mmHg 39%
    04:00 +16°C° 0 mm 2 mps 703 mmHg 41%
    05:00 +14°C° 0 mm 3 mps 703 mmHg 43%
    06:00 +17°C° 0 mm 3 mps 704 mmHg 40%
    07:00 +18°C° 0 mm 3 mps 705 mmHg 37%
    08:00 +20°C° 0 mm 3 mps 707 mmHg 34%
    09:00 +20°C° 0 mm 6 mps 708 mmHg 33%
    10:00 +21°C° 0 mm 8 mps 709 mmHg 31%
    11:00 +22°C° 0 mm 10 mps 711 mmHg 29%
    12:00 +22°C° 0 mm 10 mps 711 mmHg 27%
    13:00 +22°C° 0 mm 9 mps 711 mmHg 26%
    14:00 +22°C° 0 mm 8 mps 711 mmHg 24%
    15:00 +22°C° 0 mm 7 mps 711 mmHg 23%
    16:00 +21°C° 0 mm 6 mps 712 mmHg 22%
    17:00 +21°C° 0 mm 6 mps 712 mmHg 21%
    18:00 +19°C° 0 mm 5 mps 713 mmHg 22%
    19:00 +17°C° 0 mm 5 mps 714 mmHg 23%
    20:00 +15°C° 0 mm 4 mps 715 mmHg 23%
    21:00 +14°C° 0 mm 4 mps 715 mmHg 22%
    22:00 +14°C° 0 mm 4 mps 716 mmHg 21%
    23:00 +13°C° 0 mm 3 mps 717 mmHg 20%

    20 September, Friday

    Time Temperature Precipitation Wind Pressure Humidity
    00:00 +12°C° 0 mm 3 mps 717 mmHg 20%
    01:00 +11°C° 0 mm 3 mps 717 mmHg 21%
    02:00 +11°C° 0 mm 3 mps 717 mmHg 22%
    03:00 +10°C° 0 mm 2 mps 717 mmHg 24%
    04:00 +10°C° 0 mm 2 mps 717 mmHg 27%
    05:00 +9°C° 0 mm 2 mps 717 mmHg 30%
    06:00 +10°C° 0 mm 2 mps 717 mmHg 28%
    07:00 +13°C° 0 mm 2 mps 717 mmHg 27%
    08:00 +14°C° 0 mm 2 mps 717 mmHg 25%
    09:00 +15°C° 0 mm 2 mps 717 mmHg 25%
    10:00 +17°C° 0 mm 2 mps 717 mmHg 24%
    11:00 +18°C° 0 mm 2 mps 717 mmHg 23%
    12:00 +19°C° 0 mm 3 mps 716 mmHg 22%
    13:00 +20°C° 0 mm 3 mps 715 mmHg 21%
    14:00 +21°C° 0 mm 3 mps 714 mmHg 20%
    15:00 +21°C° 0 mm 3 mps 713 mmHg 20%
    16:00 +21°C° 0 mm 3 mps 713 mmHg 20%
    17:00 +22°C° 0 mm 3 mps 713 mmHg 20%
    18:00 +20°C° 0 mm 3 mps 713 mmHg 22%
    19:00 +18°C° 0 mm 3 mps 713 mmHg 25%
    20:00 +16°C° 0 mm 2 mps 714 mmHg 27%
    21:00 +15°C° 0 mm 2 mps 714 mmHg 29%
    22:00 +14°C° 0 mm 1 mps 714 mmHg 31%
    23:00 +13°C° 0 mm 1 mps 714 mmHg 33%
    Show more